{"data":{"norad_id":58120,"intl_designator":"2023-162C","name":"STARLINK-30768","alt_names":[],"object_type":"PAYLOAD","status":"ACTIVE","operator":null,"country":"US","launch_date":"2023-10-22","launch_site_code":"AFETR","launch_vehicle":null,"mission":null,"orbit_class":"UNKNOWN","rcs_meters":null,"size_class":null,"mass_kg":null,"dimensions":null,"purposes":["comms"],"wikipedia_slug":null,"has_3d_model":false,"image_url":null,"decayed_at":null,"tle_current":{"epoch":"2026-05-25T03:23:26.854656Z","epoch_age_seconds":56811,"freshness":"FRESH","line1":"1 58120U 23162C   26145.14128304  .00001795  00000+0  74711-4 0  9996","line2":"2 58120  43.0055  60.3734 0001220 266.6174  93.4539 15.27587968144005","mean_motion":15.27587968,"eccentricity":0.000122,"inclination_deg":43.0055,"raan_deg":60.3734,"arg_perigee_deg":266.6174,"mean_anomaly_deg":93.4539,"bstar":7.4711e-5,"rev_number":14400,"period_min":94.266257012048,"perigee_km":482.18817529197,"apogee_km":483.86229887781,"semimajor_km":6861.1622370849,"source":"CELESTRAK","updated_at":"2026-05-25T13:38:18.530975Z"}}}